Theta_e
320 323 325 324 324 322 323 322 323 321 321 323 325 325 326 327 329 329 328 328 328 328 326 325 324 323 323 322 322 320 320 320 320 320 320 321 320 320 320 320 320 319 318 318
321 324 322 321 321 321 321 322 323 321 319 323 323 324 322 326 328 328 328 328 328 328 327 326 325 324 324 323 323 322 321 320 321 321 321 322 321 320 320 320 319 318 317 315
322 321 319 320 320 322 323 324 323 323 321 319 322 323 322 324 325 325 325 327 329 329 328 326 325 325 324 323 322 322 323 322 321 320 321 322 320 320 320 319 318 314 311 310
320 318 321 320 321 322 323 320 320 319 322 325 319 325 322 323 327 325 324 323 327 329 327 326 325 325 324 322 322 321 320 319 319 321 322 320 320 319 318 315 312 311 310 309
321 319 320 321 321 320 322 317 318 318 320 320 321 322 324 326 326 327 325 324 325 328 328 326 325 324 321 321 320 319 319 320 321 321 321 320 318 315 313 312 311 309 308 307
320 317 319 321 317 318 320 322 321 321 322 323 322 322 322 326 328 327 326 326 327 327 325 323 322 320 320 319 319 320 320 321 321 319 318 316 314 313 311 310 308 307 307 308
321 321 318 317 319 318 320 323 322 320 323 319 322 324 323 324 326 326 327 326 325 324 322 320 319 319 318 320 320 319 320 319 318 316 315 314 312 310 308 307 305 305 306 304
322 322 321 318 321 321 320 322 332 329 321 319 321 326 327 326 326 326 325 326 325 324 321 319 318 318 319 319 319 319 318 316 315 314 313 311 308 307 306 304 304 303 302 302
323 322 318 317 317 320 320 320 321 325 323 326 324 325 326 327 327 326 326 324 323 322 319 318 318 319 319 319 319 317 315 315 313 312 309 307 306 305 304 303 303 303 303 302
323 324 319 315 318 321 322 321 327 328 333 327 325 325 324 328 330 328 326 324 323 319 318 318 319 319 319 318 316 315 314 312 310 308 306 305 305 304 303 303 303 303 303 304
322 324 322 317 318 320 323 324 325 327 327 333 327 323 326 327 329 330 327 325 322 318 318 319 319 319 318 316 315 313 312 310 307 306 305 306 305 304 303 302 303 303 304 304
322 326 325 321 318 316 320 325 327 327 327 328 328 328 322 324 323 324 325 323 319 317 320 319 319 317 316 314 313 311 309 307 306 305 306 304 303 303 303 303 303 303 303 304
321 324 324 322 320 319 320 320 323 324 325 328 336 327 322 324 323 323 323 319 318 320 320 318 317 315 313 312 311 309 307 306 305 305 303 303 303 302 303 303 303 303 303 304
319 322 327 331 324 322 322 320 321 323 326 325 327 325 324 323 324 321 319 319 320 320 319 317 314 313 312 311 309 307 306 303 303 302 302 301 301 302 303 303 303 303 303 304
324 326 320 321 318 319 321 321 321 322 322 323 323 324 322 323 324 320 319 320 320 319 317 314 312 312 311 309 307 305 303 302 301 300 300 301 302 303 303 303 303 303 303 303
318 325 321 321 320 320 321 321 321 321 321 322 321 322 320 320 319 319 319 320 319 317 314 313 312 310 309 306 304 302 301 299 300 299 300 301 302 302 302 302 302 303 303 304
319 322 323 323 322 322 322 322 321 321 321 321 321 322 321 321 320 319 319 319 317 314 313 311 310 308 306 304 302 300 298 299 298 299 300 301 301 301 302 302 302 303 303 304
319 321 322 325 323 324 323 322 320 321 323 322 321 321 321 319 318 318 318 317 314 313 311 310 309 307 304 301 300 298 297 297 298 299 300 300 301 300 301 302 302 303 303 304
317 321 324 326 325 323 324 322 322 322 323 320 322 320 318 319 319 316 314 314 313 311 310 309 307 304 302 299 298 297 297 297 298 299 299 299 298 299 301 302 302 303 304 304
322 321 321 324 325 328 323 323 321 321 324 319 319 319 318 318 321 320 312 313 312 310 309 308 305 301 298 298 297 297 297 298 298 299 298 298 299 300 301 302 303 304 304 303
325 323 323 322 325 323 319 323 321 324 325 319 319 318 318 319 317 315 313 312 311 310 308 305 302 298 297 297 298 298 298 298 299 299 299 298 297 301 300 301 300 302 302 304
323 322 321 321 324 325 319 321 324 325 320 319 318 317 316 315 314 313 313 311 310 308 306 303 298 297 297 299 298 298 298 299 298 297 297 297 299 300 301 299 298 299 300 301
325 323 324 323 323 319 319 319 319 319 320 317 317 316 315 315 314 313 312 310 309 307 303 300 298 298 297 296 296 298 297 297 297 297 299 299 298 298 298 298 297 297 298 298
321 320 322 321 322 322 320 319 319 319 318 316 315 314 314 316 314 312 311 310 308 304 301 299 299 298 296 296 296 298 297 297 297 297 297 297 297 297 297 297 297 296 296 296
319 320 322 321 321 320 319 319 317 316 316 315 314 314 315 314 313 312 311 309 307 302 300 299 297 296 296 297 298 298 297 297 297 297 297 297 297 297 297 296 296 295 294 295
317 320 322 322 320 321 319 318 316 316 315 314 314 315 314 314 313 312 311 309 306 301 299 298 297 296 297 297 297 297 297 297 297 297 297 296 296 296 296 296 296 294 293 293
Wind_Speed
2 3 6 8 4 2 5 4 3 2 2 10 14 9 10 24 23 22 23 25 24 24 21 19 17 15 15 14 13 12 14 14 17 21 23 22 22 23 24 26 28 29 32 35
3 5 3 5 7 5 5 4 3 3 2 6 7 10 3 18 28 29 26 26 25 23 24 22 20 19 19 16 16 17 18 19 23 25 25 25 25 27 28 30 32 36 39 42
4 2 4 6 6 8 3 4 4 2 3 3 4 6 6 6 13 15 20 21 22 25 24 24 21 20 18 17 18 20 20 23 24 24 23 23 25 28 30 32 40 44 47 50
3 1 6 8 6 4 5 4 5 4 3 5 3 6 5 8 10 12 18 23 27 27 27 22 20 19 19 19 20 19 19 21 20 18 18 21 25 30 35 42 47 51 53 54
3 5 6 5 4 6 2 3 3 2 2 2 3 4 5 3 9 11 11 15 21 24 22 20 19 17 18 17 15 15 15 11 12 14 18 24 31 37 43 48 52 53 51 48
2 2 2 2 4 1 11 5 5 3 1 5 3 5 5 5 4 2 5 10 16 18 18 17 15 15 13 11 10 7 8 10 13 17 24 31 38 45 49 50 49 44 42 41
2 2 1 3 6 5 3 4 2 3 3 2 2 3 6 3 4 5 10 13 13 14 12 10 11 10 8 6 5 6 9 13 20 27 33 40 45 48 48 46 39 40 41 32
6 6 6 5 5 6 5 4 3 3 2 2 2 4 1 1 5 7 10 14 13 10 6 7 7 7 6 4 5 9 15 21 28 35 40 45 47 44 42 37 40 38 36 33
5 5 1 1 2 2 5 5 3 5 2 3 1 2 7 3 2 8 9 11 12 6 6 6 7 6 3 3 9 16 22 29 35 41 45 43 41 39 38 35 33 32 32 32
6 2 1 3 4 9 2 11 3 2 3 3 2 4 4 5 9 9 10 17 10 5 6 8 6 3 2 8 15 22 29 35 40 41 39 37 37 33 31 30 30 31 31 31
8 5 3 4 6 8 5 4 4 3 1 3 2 2 4 8 10 12 15 12 6 7 9 8 4 2 7 14 21 28 34 37 38 38 36 34 29 29 29 29 29 30 31 31
8 6 9 9 3 1 1 4 7 4 5 1 1 6 2 4 7 7 10 6 7 10 10 6 1 6 12 20 27 32 36 37 36 34 32 28 28 28 30 30 30 30 31 30
9 4 6 4 3 3 5 5 4 5 2 7 4 4 2 0 2 3 5 10 12 12 8 3 4 11 18 25 31 35 36 34 33 31 28 27 27 29 30 30 30 29 29 29
11 4 8 10 13 4 7 8 9 7 5 6 8 11 4 2 2 6 11 12 12 9 5 4 8 15 23 29 33 34 33 31 29 28 27 28 28 28 29 28 28 28 27 27
3 7 5 3 4 6 6 14 14 12 7 7 6 7 5 3 5 10 12 12 10 7 5 8 13 21 27 30 32 31 29 30 27 26 26 25 25 25 26 27 27 26 25 25
2 4 4 4 4 5 4 9 12 10 7 10 7 10 3 4 11 11 11 10 9 7 7 12 18 23 26 28 29 29 29 29 25 24 23 23 24 24 25 26 26 26 25 24
3 5 5 6 6 2 6 12 12 7 7 8 9 6 11 9 11 9 9 9 8 7 9 13 19 22 25 27 27 27 27 25 23 22 21 22 22 24 25 26 26 25 25 25
4 1 1 4 9 9 2 1 8 9 5 8 2 7 13 14 12 9 8 9 9 7 10 15 19 21 23 25 25 25 24 23 21 20 20 21 22 23 24 25 26 26 27 27
2 2 2 5 9 2 2 5 8 8 6 6 8 13 14 16 13 10 8 8 7 7 11 15 18 19 22 23 23 24 22 21 19 20 21 22 24 24 24 25 25 26 26 29
3 5 3 2 9 8 3 9 9 6 4 13 16 18 17 13 5 5 9 6 6 8 12 15 16 19 20 21 20 20 20 20 21 21 22 26 26 23 24 27 27 27 26 28
0 3 4 4 7 3 3 8 9 6 1 21 21 20 16 5 5 15 11 7 5 8 12 13 16 19 18 18 17 20 21 23 20 20 20 25 26 21 24 30 31 29 33 29
5 6 3 2 2 6 5 8 7 1 2 20 19 16 13 13 16 15 11 6 5 8 11 13 14 15 16 19 23 24 25 24 26 26 23 23 24 25 25 27 25 25 27 28
4 5 3 7 4 2 4 6 11 7 15 18 20 17 17 18 17 14 10 5 5 9 10 12 12 15 19 22 23 24 26 27 23 22 19 21 23 22 21 22 26 28 28 28
5 7 3 2 7 4 7 9 10 9 16 22 21 18 15 18 17 14 9 5 7 8 10 13 17 19 19 19 19 19 22 24 23 23 22 21 22 24 24 24 26 27 28 27
2 8 8 4 11 7 6 11 10 17 24 23 19 18 17 18 16 12 9 6 6 9 14 17 18 17 15 15 14 15 21 22 22 21 21 22 22 22 22 22 23 25 26 26
6 6 9 5 8 7 4 10 21 25 23 22 23 20 17 13 13 12 9 6 8 11 15 16 15 12 11 10 10 13 19 21 21 22 23 24 24 23 21 17 16 19 20 20
Wind_Direction
71 205 199 193 195 119 147 157 174 183 202 202 211 220 189 189 201 202 205 205 206 207 201 203 210 219 229 236 244 259 266 275 280 282 284 286 288 293 297 303 306 306 307 306
167 204 180 147 156 145 160 176 180 143 54 210 192 207 214 191 208 206 206 209 209 209 210 213 220 231 240 249 254 261 266 271 273 277 278 277 280 287 294 299 302 304 305 305
216 121 135 155 154 153 165 193 178 185 114 79 160 194 184 193 226 233 231 224 215 212 215 219 227 239 253 260 263 269 269 273 280 282 279 274 282 290 296 299 301 302 303 302
226 139 161 151 174 185 178 180 145 139 198 232 316 246 213 187 222 233 234 224 219 216 217 224 232 246 255 255 262 265 269 280 284 282 277 284 293 298 299 301 304 305 305 304
169 173 168 178 194 184 116 126 87 82 124 232 189 254 233 232 241 215 218 219 212 207 214 229 239 244 246 254 261 270 280 283 284 287 293 299 300 302 304 306 305 305 306 305
273 284 218 147 86 86 141 100 67 71 114 252 258 251 230 213 244 216 175 180 184 198 215 222 227 239 247 252 264 268 281 286 294 299 301 305 307 308 308 307 307 309 308 307
262 217 282 155 118 112 150 154 238 207 196 274 106 246 279 289 261 262 179 180 189 199 202 214 229 231 232 230 249 280 297 304 308 309 311 311 311 310 311 311 311 309 311 310
205 208 198 172 222 197 185 210 180 217 215 56 159 240 88 293 288 237 198 204 204 202 202 212 204 193 199 233 287 307 311 314 315 317 317 316 316 315 313 311 313 314 312 310
176 243 90 55 122 205 149 199 97 109 75 258 233 254 258 239 225 189 195 195 203 185 197 175 169 176 194 304 316 320 323 322 322 323 322 320 320 321 321 320 319 319 321 321
179 219 27 125 112 57 222 140 148 130 194 250 210 267 248 211 221 208 203 212 196 169 153 156 156 158 334 330 330 327 327 328 329 327 327 327 331 333 331 329 329 327 323 323
166 210 166 174 208 193 148 182 70 117 188 218 268 241 216 219 218 217 224 218 181 149 144 148 137 4 340 332 332 333 333 332 329 330 333 336 340 340 338 333 330 326 325 328
190 198 216 206 113 177 230 201 179 216 201 194 262 259 180 274 266 248 247 198 156 140 135 129 87 343 336 338 338 339 335 332 334 336 340 343 343 341 340 336 335 333 328 326
177 203 202 178 175 158 214 184 157 109 107 211 189 246 147 3 204 216 154 136 133 130 125 105 358 346 344 345 341 336 335 336 338 342 345 344 347 345 342 341 339 336 334 331
161 158 205 211 224 157 183 190 188 194 212 241 229 263 234 227 208 130 126 123 123 121 107 48 2 351 348 341 338 338 338 341 343 347 347 348 347 346 344 344 345 344 342 339
213 218 197 237 202 174 177 185 177 201 207 220 247 213 264 276 178 137 129 130 126 112 76 22 1 350 343 341 338 340 343 344 348 348 348 348 350 350 352 353 354 350 353 351
274 216 153 175 173 200 190 179 186 201 198 240 249 251 216 139 135 136 135 131 116 89 47 11 353 346 343 340 343 346 347 350 351 350 352 354 356 358 1 1 2 2 2 3
304 163 174 210 175 147 253 214 198 193 208 230 228 264 155 149 136 113 117 114 102 72 25 359 353 346 341 345 350 352 352 356 355 356 358 3 7 10 13 13 13 12 14 16
305 226 234 153 150 225 98 287 209 184 179 220 233 173 164 139 110 93 112 117 97 56 14 357 348 343 348 355 356 355 1 359 1 6 14 17 23 24 25 25 26 26 28 32
91 277 182 198 214 303 126 169 150 170 200 187 184 157 141 137 121 80 103 109 87 36 5 353 347 351 358 2 1 6 6 10 17 23 32 37 29 28 26 27 28 30 36 40
79 33 206 259 234 228 165 175 167 145 227 171 167 161 156 163 198 117 141 118 67 21 1 353 354 2 9 7 10 16 23 28 36 44 48 43 35 27 32 35 36 40 43 44
319 240 297 234 226 294 253 154 150 185 68 169 178 169 160 160 69 141 148 123 53 11 2 2 7 18 18 20 33 42 46 42 45 50 47 35 22 27 42 45 42 42 43 42
189 171 160 163 229 252 346 137 187 92 32 160 157 155 137 130 131 136 138 115 45 16 17 14 27 33 40 58 62 60 52 53 49 35 30 23 37 56 47 42 38 40 46 46
220 205 184 198 201 164 260 276 300 234 165 155 148 144 144 139 141 144 142 111 50 36 29 36 52 63 77 70 60 58 55 35 30 29 33 35 36 39 40 35 35 37 37 39
222 192 227 190 248 272 265 230 258 208 157 150 150 142 142 145 148 146 138 112 66 58 60 76 81 84 81 67 61 60 38 30 32 40 39 36 32 31 29 30 31 32 34 30
252 174 213 231 267 310 291 230 219 159 147 144 140 142 148 144 145 145 139 110 89 89 98 99 92 91 79 67 66 50 31 31 31 34 33 27 24 21 20 21 28 29 28 23
212 224 212 236 213 265 336 206 174 156 152 149 144 144 146 144 145 150 141 122 112 116 117 108 103 90 77 65 58 38 27 26 31 36 32 30 29 26 23 21 22 17 20 23